Погода в Беылагане

Погода в Беылагане : погода сейчас, прогноз погоды и архив. Всё, что Вы хотите узнать о погоде в Беылагане!

Поиск расширенной информации на нашем сайте:

Другие новости

Новости СМИ2

Главная страница сайта

Новости сайта

03.07.2017

Напоминаем, что на нашем специализированном сайте Метеоцентр.Азия вы можете получить высокодетализированные автоматические прогнозы погоды по пунктам России, СНГ и мира в авиационном формате (включающие направление и скорость ветра, видимость, явления погоды, количество и форму облачности, нижнюю и верхнюю границу облачности).

Рекомендуем: камазовские запчасти

Погода в Беылагане - сегодня

Время (UTC), дата Ветер
(°,м/с) 
Видим.   Явления Облачность Т
(°С)
Тd
(°С)
f(%) Тe
(°С)
Pmin
(гПа)
dP
(гПа)
Po
(мм)
O2
(г/м3)
Тmin Tmax R s Состояние
почвы
03 05.05.17 тихо ()   10 км    8/0 средняя 
[Ac trans]
+14.1 +21.4 100 +36  1013.8  0.8  754  283           
06 05.05.17 340 (С) 10 км    9/0 
+19.5 +12.2 63 +25  1014.9  1.2  755  282           
09 05.05.17 070 (В) 10 км    9/0 средняя 
[Ac trans]
+22.6 +11.1 48 +25  1014.2  -0.5  754  279           
12 05.05.17 340 (С) 10 км    10/10 600 м 
[St]
+25.1 +11.3 42 +28  1013  -1.2  754  276           
15 05.05.17 270 (З) 10 км    10/10 600 м 
[St]
+20.3 +13.7 66 +27  1012.5  -0.4  753  280           
18 05.05.17 110 (В) 10 км    10/10 600 м 
[St]
+18.8 +9 53 +20  1014.5  1.7  755  283    +25.4       
21 05.05.17 340 (С) 10 км    10/10 600 м 
[St]
+16.3 +10 66 +19  1014.7  0.2  755  285           
00 06.05.17 340 (С) 10 км    10/10 600 м 
[St]
+15.5 +12.6 83 +22  1014.7  755  285           
03 06.05.17 320 (СЗ) 2000 м  дождь  10/10 300 м 
[Frnb]
+14.6 +12.2 86 +20  1015.5  0.7  755  286         
06 06.05.17 290 (З) 10 км    10/10 600 м 
[St]
+18.9 +13 69 +25  1016.4  756  282           
09 06.05.17 090 (В) 10 км    3/0 средняя 
[Ac lent]
+22.5 +9.8 44 +23  1015  -1.2  755  279           
12 06.05.17 тихо ()   10 км    4/0 средняя 
[Ac trans]
+24.3 +9.7 40 +25  1013.9  -1.1  754  277           
15 06.05.17 340 (С) 10 км    9/0 средняя 
[Ac trans]
+22.1 +12.4 54 +26  1013.2  -0.6  754  279           
18 06.05.17 270 (З) 10 км    10/10 600 м 
[St]
+18.1 +13.7 75 +26  1014.2  0.7  754  282    +24.3       
21 06.05.17 тихо ()   10 км    10/10 600 м 
[St]
+16.1 +12.8 81 +21  1013  -1.1  753  284           
00 07.05.17 230 (ЮЗ) 10 км    4/0 средняя 
[Ac trans]
+14.4 +12 85 +20  1012.1  -0.9  753  286           
03 07.05.17 250 (З) 10 км    ясно 
+15.2 +12.1 82 +21  1012.1  -0.1  753  285           
06 07.05.17 050 (СВ) 10 км    ясно 
+21.6 +12.8 57 +27  1011.8  753  279           
12 27.05.17 090 (В) 10 км    4/4 600 м 
[Cu med, cong]
+26.9 +13.8 44 +34  1009.4  -2.3  751  273           
18 02.06.17 140 (ЮВ) 10 км    6/6 600 м 
[Cu Sc]
+18.8 +11.8 64 +24  1011.3  1.5  752  281    +27.5       
06 05.06.17 110 (В) 10 км    10/10 600 м 
[St]
+21.7 +14.6 64 +29  1019.9  0.8  759  280           
12 05.06.17 110 (В) 10 км    4/4 600 м 
[Cu med, cong]
+28.2 +14 42 +35  1018.3  -0.9  758  274           
09 06.07.17 090 (В) 10 км    6/0 средняя 
[Ac trans]
+31.4 +14.9 37 +40  1011.8  -1.6  753  269           
15 09.07.17 090 (В) 10 км    10/10 600 м 
[St]
+27 +16.8 54 +39  1012.2  1.4  753  273           
15 16.07.17 090 (В) 10 км    3/0 средняя 
[Ac lent]
+33.1 +12.8 29 +38  1010.6  -0.1  752  268           
Время (UTC), дата Ветер
(°,м/с) 
Видим.   Явления Облачность Т
(°С)
Тd
(°С)
f(%) Тe
(°С)
Pmin
(гПа)
dP
(гПа)
Po
(мм)
O2
(г/м3)
Тmin Tmax R s Состояние
почвы

Для получения пояснительной информации подведите курсор к названию столбца.

ПОГОДА в Беылагане - архив

Всё, что Вы хотите узнать о погоде в Беылагане - удобно и подробно!

Выберите нужную дату (начиная с 1 января 2015* года) и нажмите кнопку "Найти".
Будут отображены архивные сводки погоды по пункту Беылаган, начиная с указанной даты.


Отображать данные в формате CSV (для использования в таблицах Excel)


Внимание! Наш архив погоды предназначен исключительно для личного некоммерческого использования в познавательных целях. Если Вам необходимы официальные справки о состоянии погоды (для производственных, юридических, коммерческих и т.п. целей), обращайтесь в органы Росгидромета.

*Примечание: данная дата относится к архиву по метеостанциям СССР (Россия, СНГ, Балтия).
Архив по метеостанциям Зарубежной Европы и Азии (кроме Китая) хранится 10 дней, по другим регионам земного шара (Китай, Африка, Америка, Австралия, Океания) - 1 день.

Беылаган - район местоположения метеостанции


Название, широта, долгота, высота метеостанции:
Беылаган (АМСГ) 39.8°ш. 47.8°д. 72 м над ур. моря [Азербайджан]

Дополнительная информация

В oтличие oт бoльшинства пoгoдных сайтoв мы публикуем пoдрoбную метеoинфoрмацию в детальнoм прoфессиoнальнoм фoрмате.

Характеристики температуры и влажнoсти вoздуха измеряются на высoте 2 м в тени вдали oт зданий и деревьев.
Скoрoсть ветра измеряется на высoте 10 м (на урoвне рoста челoвека скoрoсть ветра ниже в 1.5-2 раза). Если метеoстанция нахoдится в гoрoде или в лесу, тo скoрoсть ветра занижена на 2-4 м/с пo сравнению с oткрытым местoм. Скoрoсть ветра над акватoриями крупных рек и oзёр, а также на вершинах хoлмoв на 2-5 м/с выше, чем в oбычных услoвиях.
Атмoсфернoе давление в разных тoчках местнoсти мoжет значительнo oтличаться oт давления на метеoстанции, в зависимoсти oт услoвий рельефа (при пoдъёме на 10 м давление пoнижается примернo на 1 мм рт.ст.).